| time (UTC) | temp F | wind direction | speed MPH | gust MPH | rain 1hr in | rain 24hr in | rain mn in | humidity % | barometer mb |
| 20260904090515 | 76 | 0.0 | 0.0 | 0.00 | 0.00 | 0.00 | 88 | 1014.9 | |
| 20260904085555 | 76 | 0.0 | 0.0 | 0.00 | 0.00 | 0.00 | 87 | 1014.7 | |
| 20260904084515 | 77 | 0.0 | 0.0 | 0.00 | 0.00 | 0.00 | 87 | 1014.8 | |
| 20260904083516 | 77 | 0.0 | 0.0 | 0.00 | 0.00 | 0.00 | 87 | 1014.7 | |
| 20260904082536 | 77 | 0.0 | 0.0 | 0.00 | 0.00 | 0.00 | 86 | 1014.7 | |
| 20260904081514 | 77 | 0.0 | 0.0 | 0.00 | 0.00 | 0.00 | 85 | 1014.6 | |
| 20260904080514 | 78 | 0.0 | 0.0 | 0.00 | 0.00 | 0.00 | 85 | 1014.6 | |
| 20260904075514 | 78 | 0.0 | 0.0 | 0.00 | 0.00 | 0.00 | 84 | 1014.6 | |
| 20260904074514 | 78 | 0.0 | 1.0 | 0.00 | 0.00 | 0.00 | 84 | 1014.6 | |
| 20260904073514 | 78 | 0.0 | 1.0 | 0.00 | 0.00 | 0.00 | 84 | 1014.5 | |
| 20260904072514 | 78 | 0.0 | 1.0 | 0.00 | 0.00 | 0.00 | 84 | 1014.5 | |
| 20260904071514 | 78 | 0.0 | 0.0 | 0.00 | 0.00 | 0.00 | 84 | 1014.6 | |
| 20260904070514 | 79 | 0.0 | 0.0 | 0.00 | 0.00 | 0.00 | 83 | 1014.5 | |
| 20260904065514 | 79 | 0.0 | 1.0 | 0.00 | 0.00 | 0.00 | 82 | 1014.7 | |
| 20260904064514 | 80 | 0.0 | 0.0 | 0.00 | 0.00 | 0.00 | 82 | 1014.7 | |
| 20260904063514 | 80 | 0.0 | 1.0 | 0.00 | 0.00 | 0.00 | 81 | 1014.6 | |
| 20260904062514 | 80 | 0.0 | 1.0 | 0.00 | 0.00 | 0.00 | 80 | 1014.7 | |
| 20260904061514 | 80 | 0.0 | 3.0 | 0.00 | 0.00 | 0.00 | 80 | 1014.6 | |
| 20260904060514 | 81 | 0.0 | 0.0 | 0.00 | 0.00 | 0.00 | 79 | 1014.7 | |
| 20260904055534 | 81 | 0.0 | 0.0 | 0.00 | 0.00 | 0.00 | 79 | 1014.8 | |
| 20260904054514 | 81 | 0.0 | 0.0 | 0.00 | 0.00 | 0.00 | 79 | 1014.7 | |
| 20260904053514 | 81 | 0.0 | 0.0 | 0.00 | 0.00 | 0.00 | 78 | 1014.6 | |
| 20260904052534 | 81 | 0.0 | 0.0 | 0.00 | 0.00 | 0.00 | 78 | 1014.6 | |
| 20260904051514 | 81 | 0.0 | 2.0 | 0.00 | 0.00 | 0.00 | 78 | 1014.6 | |
| 20260904050514 | 81 | 135 | 1.0 | 2.0 | 0.00 | 0.00 | 0.00 | 78 | 1014.6 |
| 20260904045515 | 81 | 0.0 | 2.0 | 0.00 | 0.00 | 0.00 | 78 | 1014.7 | |
| 20260904044535 | 81 | 0.0 | 2.0 | 0.00 | 0.00 | 0.00 | 78 | 1014.6 | |
| 20260904043515 | 81 | 0.0 | 0.0 | 0.00 | 0.00 | 0.00 | 78 | 1014.7 | |
| 20260904042514 | 81 | 0.0 | 0.0 | 0.00 | 0.00 | 0.00 | 77 | 1014.6 | |
| 20260904041515 | 81 | 0.0 | 0.0 | 0.00 | 0.00 | 0.00 | 77 | 1014.6 | |
| 20260904040514 | 81 | 0.0 | 0.0 | 0.00 | 0.00 | 0.00 | 76 | 1014.6 | |
| 20260904035555 | 82 | 0.0 | 0.0 | 0.00 | 0.00 | 0.00 | 76 | 1014.6 | |
| 20260904034514 | 82 | 0.0 | 0.0 | 0.00 | 0.00 | 0.00 | 75 | 1014.6 | |
| 20260904033514 | 82 | 0.0 | 0.0 | 0.00 | 0.00 | 0.00 | 74 | 1014.5 | |
| 20260904032514 | 83 | 0.0 | 0.0 | 0.00 | 0.00 | 0.00 | 73 | 1014.5 | |
| 20260904031514 | 83 | 0.0 | 0.0 | 0.00 | 0.00 | 0.00 | 73 | 1014.5 | |
| 20260904030515 | 83 | 0.0 | 0.0 | 0.00 | 0.00 | 0.00 | 72 | 1014.5 | |
| 20260904025514 | 84 | 0.0 | 0.0 | 0.00 | 0.00 | 0.00 | 71 | 1014.4 | |
| 20260904024514 | 84 | 0.0 | 0.0 | 0.00 | 0.00 | 0.00 | 69 | 1014.5 | |
| 20260904023514 | 85 | 0.0 | 0.0 | 0.00 | 0.00 | 0.00 | 68 | 1014.3 | |
| 20260904022514 | 85 | 0.0 | 0.0 | 0.00 | 0.00 | 0.00 | 67 | 1014.2 | |
| 20260904021514 | 85 | 0.0 | 0.0 | 0.00 | 0.00 | 0.00 | 67 | 1014.1 | |
| 20260904020514 | 85 | 0.0 | 0.0 | 0.00 | 0.00 | 0.00 | 66 | 1014.1 | |
| 20260904015514 | 86 | 0.0 | 0.0 | 0.00 | 0.00 | 0.00 | 65 | 1014.0 | |
| 20260904014514 | 86 | 0.0 | 0.0 | 0.00 | 0.00 | 0.00 | 64 | 1013.9 | |
| 20260904013514 | 87 | 0.0 | 2.0 | 0.00 | 0.00 | 0.00 | 63 | 1013.8 | |
| 20260904012514 | 87 | 0.0 | 0.0 | 0.00 | 0.00 | 0.00 | 63 | 1013.7 | |
| 20260904011514 | 87 | 0.0 | 0.0 | 0.00 | 0.00 | 0.00 | 62 | 1013.5 | |
| 20260904010514 | 88 | 0.0 | 0.0 | 0.00 | 0.00 | 0.00 | 61 | 1013.5 | |
| 20260904005514 | 89 | 0.0 | 0.0 | 0.00 | 0.00 | 0.00 | 60 | 1013.3 | |
| 20260904004514 | 90 | 0.0 | 0.0 | 0.00 | 0.00 | 0.00 | 58 | 1013.3 | |
| 20260904003514 | 91 | 0.0 | 1.0 | 0.00 | 0.00 | 0.00 | 56 | 1013.1 | |
| 20260904002534 | 92 | 0.0 | 0.0 | 0.00 | 0.00 | 0.00 | 55 | 1013.1 | |
| 20260904001514 | 92 | 135 | 1.0 | 2.0 | 0.00 | 0.00 | 0.00 | 53 | 1013.1 |
| 20260904000514 | 93 | 135 | 1.0 | 3.0 | 0.00 | 0.00 | 0.00 | 52 | 1013.1 |
| 20260903235514 | 94 | 158 | 1.0 | 3.0 | 0.00 | 0.00 | 0.00 | 50 | 1013.0 |
| 20260903234514 | 94 | 158 | 2.0 | 5.0 | 0.00 | 0.00 | 0.00 | 49 | 1013.2 |
| 20260903233514 | 96 | 135 | 3.0 | 7.0 | 0.00 | 0.00 | 0.00 | 47 | 1013.1 |
| 20260903232514 | 96 | 158 | 2.0 | 3.0 | 0.00 | 0.00 | 0.00 | 45 | 1013.1 |
| 20260903231514 | 96 | 135 | 2.0 | 3.0 | 0.00 | 0.00 | 0.00 | 46 | 1013.1 |
| 20260903230514 | 96 | 135 | 2.0 | 5.0 | 0.00 | 0.00 | 0.00 | 46 | 1013.1 |
| 20260903225514 | 96 | 113 | 3.0 | 6.0 | 0.00 | 0.00 | 0.00 | 46 | 1013.0 |
| 20260903224514 | 96 | 135 | 4.0 | 8.0 | 0.00 | 0.00 | 0.00 | 45 | 1013.0 |
| 20260903223514 | 96 | 135 | 4.0 | 8.0 | 0.00 | 0.00 | 0.00 | 45 | 1013.0 |
| 20260903222514 | 97 | 158 | 4.0 | 8.0 | 0.00 | 0.00 | 0.00 | 45 | 1013.1 |
| 20260903221514 | 96 | 180 | 3.0 | 5.0 | 0.00 | 0.00 | 0.00 | 45 | 1013.1 |
| 20260903220514 | 95 | 135 | 3.0 | 4.0 | 0.00 | 0.00 | 0.00 | 46 | 1013.1 |
| 20260903215514 | 95 | 158 | 2.0 | 4.0 | 0.00 | 0.00 | 0.00 | 46 | 1013.1 |
| 20260903214514 | 95 | 158 | 2.0 | 3.0 | 0.00 | 0.00 | 0.00 | 47 | 1013.2 |
| 20260903213514 | 95 | 135 | 2.0 | 3.0 | 0.00 | 0.00 | 0.00 | 46 | 1013.3 |
| 20260903212514 | 96 | 135 | 2.0 | 4.0 | 0.00 | 0.00 | 0.00 | 45 | 1013.3 |
| 20260903211514 | 96 | 113 | 2.0 | 5.0 | 0.00 | 0.00 | 0.00 | 44 | 1013.4 |
| 20260903210514 | 97 | 113 | 3.0 | 5.0 | 0.00 | 0.00 | 0.00 | 43 | 1013.6 |
| 20260903205514 | 99 | 113 | 2.0 | 8.0 | 0.00 | 0.00 | 0.00 | 41 | 1013.7 |
| 20260903204514 | 97 | 293 | 1.0 | 4.0 | 0.00 | 0.00 | 0.00 | 46 | 1013.8 |
| 20260903203534 | 96 | 135 | 1.0 | 3.0 | 0.00 | 0.00 | 0.00 | 46 | 1013.7 |
| 20260903202514 | 95 | 158 | 1.0 | 3.0 | 0.00 | 0.00 | 0.00 | 47 | 1013.9 |
| 20260903201514 | 95 | 90 | 1.0 | 3.0 | 0.00 | 0.00 | 0.00 | 48 | 1014.2 |
| 20260903200514 | 95 | 113 | 3.0 | 7.0 | 0.00 | 0.00 | 0.00 | 46 | 1014.2 |
| 20260903195514 | 96 | 135 | 2.0 | 4.0 | 0.00 | 0.00 | 0.00 | 46 | 1014.3 |
| 20260903194514 | 96 | 158 | 2.0 | 5.0 | 0.00 | 0.00 | 0.00 | 45 | 1014.3 |
| 20260903193534 | 96 | 135 | 2.0 | 5.0 | 0.00 | 0.00 | 0.00 | 45 | 1014.5 |
| 20260903192514 | 97 | 90 | 1.0 | 3.0 | 0.00 | 0.00 | 0.00 | 44 | 1014.8 |
| 20260903191514 | 96 | 113 | 2.0 | 5.0 | 0.00 | 0.00 | 0.00 | 47 | 1014.8 |
| 20260903190514 | 96 | 180 | 2.0 | 5.0 | 0.00 | 0.00 | 0.00 | 48 | 1014.8 |
| 20260903185514 | 96 | 135 | 2.0 | 5.0 | 0.00 | 0.00 | 0.00 | 48 | 1014.9 |
| 20260903184513 | 96 | 0 | 2.0 | 5.0 | 0.00 | 0.00 | 0.00 | 47 | 1015.1 |
| 20260903183513 | 96 | 225 | 2.0 | 5.0 | 0.00 | 0.00 | 0.00 | 46 | 1015.2 |
| 20260903182514 | 97 | 293 | 3.0 | 8.0 | 0.00 | 0.00 | 0.00 | 46 | 1015.2 |
| 20260903181514 | 96 | 315 | 2.0 | 8.0 | 0.00 | 0.00 | 0.00 | 48 | 1015.4 |
| 20260903180516 | 95 | 180 | 3.0 | 6.0 | 0.00 | 0.00 | 0.00 | 48 | 1015.5 |
| 20260903175516 | 94 | 203 | 3.0 | 8.0 | 0.00 | 0.00 | 0.00 | 48 | 1015.7 |
| 20260903174535 | 94 | 225 | 4.0 | 8.0 | 0.00 | 0.00 | 0.00 | 47 | 1015.7 |
| 20260903173515 | 94 | 180 | 4.0 | 8.0 | 0.00 | 0.00 | 0.00 | 48 | 1015.9 |
| 20260903172516 | 95 | 225 | 4.0 | 10.0 | 0.00 | 0.00 | 0.00 | 47 | 1016.0 |
| 20260903171516 | 94 | 180 | 2.0 | 4.0 | 0.00 | 0.00 | 0.00 | 49 | 1015.9 |
| 20260903170515 | 95 | 90 | 3.0 | 7.0 | 0.00 | 0.00 | 0.00 | 49 | 1016.0 |
| 20260903165515 | 94 | 135 | 3.0 | 7.0 | 0.00 | 0.00 | 0.00 | 51 | 1016.1 |
| 20260903164515 | 93 | 180 | 4.0 | 11.0 | 0.00 | 0.00 | 0.00 | 53 | 1016.2 |
| 20260903163536 | 93 | 180 | 3.0 | 7.0 | 0.00 | 0.00 | 0.00 | 53 | 1016.3 |
| 20260903162515 | 93 | 135 | 3.0 | 10.0 | 0.00 | 0.00 | 0.00 | 54 | 1016.3 |
| 20260903161515 | 93 | 315 | 3.0 | 6.0 | 0.00 | 0.00 | 0.00 | 55 | 1016.4 |
| 20260903160556 | 91 | 203 | 3.0 | 9.0 | 0.00 | 0.00 | 0.00 | 56 | 1016.4 |
| 20260903155515 | 91 | 113 | 3.0 | 9.0 | 0.00 | 0.00 | 0.00 | 57 | 1016.6 |
| 20260903154515 | 90 | 203 | 4.0 | 8.0 | 0.00 | 0.00 | 0.00 | 58 | 1016.6 |
| 20260903153515 | 90 | 135 | 3.0 | 6.0 | 0.00 | 0.00 | 0.00 | 59 | 1016.5 |
| 20260903152515 | 90 | 203 | 2.0 | 5.0 | 0.00 | 0.00 | 0.00 | 60 | 1016.6 |
| 20260903151515 | 90 | 135 | 3.0 | 6.0 | 0.00 | 0.00 | 0.00 | 60 | 1016.6 |
| 20260903150515 | 89 | 203 | 2.0 | 4.0 | 0.00 | 0.00 | 0.00 | 63 | 1016.5 |
| 20260903145515 | 88 | 180 | 2.0 | 6.0 | 0.00 | 0.00 | 0.00 | 63 | 1016.6 |
| 20260903144515 | 88 | 180 | 3.0 | 5.0 | 0.00 | 0.00 | 0.00 | 64 | 1016.5 |
| 20260903143535 | 87 | 180 | 2.0 | 4.0 | 0.00 | 0.00 | 0.00 | 66 | 1016.4 |
| 20260903142515 | 86 | 158 | 2.0 | 4.0 | 0.00 | 0.00 | 0.00 | 69 | 1016.6 |
| 20260903141535 | 84 | 158 | 2.0 | 4.0 | 0.00 | 0.00 | 0.00 | 71 | 1016.6 |
| 20260903140515 | 83 | 158 | 1.0 | 3.0 | 0.00 | 0.00 | 0.00 | 75 | 1016.5 |
| 20260903135515 | 82 | 135 | 2.0 | 4.0 | 0.00 | 0.00 | 0.00 | 77 | 1016.7 |
| 20260903134515 | 81 | 180 | 2.0 | 2.0 | 0.00 | 0.00 | 0.00 | 78 | 1016.5 |
| 20260903133515 | 80 | 135 | 3.0 | 6.0 | 0.00 | 0.00 | 0.00 | 79 | 1016.6 |
| 20260903132535 | 80 | 180 | 3.0 | 5.0 | 0.00 | 0.00 | 0.00 | 80 | 1016.7 |
| 20260903131515 | 79 | 158 | 2.0 | 4.0 | 0.00 | 0.00 | 0.00 | 81 | 1016.5 |
| 20260903130515 | 78 | 158 | 2.0 | 4.0 | 0.00 | 0.00 | 0.00 | 82 | 1016.5 |
| 20260903125515 | 78 | 135 | 2.0 | 4.0 | 0.00 | 0.00 | 0.00 | 83 | 1016.5 |
| 20260903124515 | 77 | 158 | 2.0 | 4.0 | 0.00 | 0.00 | 0.00 | 84 | 1016.4 |
| 20260903123535 | 77 | 180 | 1.0 | 3.0 | 0.00 | 0.00 | 0.00 | 85 | 1016.5 |
| 20260903122515 | 76 | 180 | 1.0 | 3.0 | 0.00 | 0.00 | 0.00 | 86 | 1016.5 |
| 20260903121515 | 76 | 0.0 | 0.0 | 0.00 | 0.00 | 0.00 | 86 | 1016.3 | |
| 20260903120535 | 76 | 158 | 1.0 | 3.0 | 0.00 | 0.00 | 0.00 | 86 | 1016.3 |
| 20260903115535 | 76 | 158 | 1.0 | 3.0 | 0.00 | 0.00 | 0.00 | 86 | 1016.2 |
| 20260903114515 | 76 | 0.0 | 2.0 | 0.00 | 0.00 | 0.00 | 86 | 1016.1 | |
| 20260903113515 | 76 | 158 | 1.0 | 3.0 | 0.00 | 0.00 | 0.00 | 86 | 1016.1 |
| 20260903112515 | 76 | 158 | 1.0 | 2.0 | 0.00 | 0.00 | 0.00 | 86 | 1016.1 |
| 20260903111515 | 76 | 0.0 | 0.0 | 0.00 | 0.00 | 0.00 | 86 | 1016.1 | |
| 20260903110515 | 76 | 158 | 1.0 | 2.0 | 0.00 | 0.00 | 0.00 | 85 | 1016.1 |
| 20260903105535 | 76 | 158 | 1.0 | 2.0 | 0.00 | 0.00 | 0.00 | 85 | 1016.0 |
| 20260903104515 | 76 | 158 | 1.0 | 2.0 | 0.00 | 0.00 | 0.00 | 85 | 1015.9 |
| 20260903103515 | 76 | 0.0 | 0.0 | 0.00 | 0.00 | 0.00 | 85 | 1015.8 | |
| 20260903102555 | 77 | 0.0 | 2.0 | 0.00 | 0.00 | 0.00 | 86 | 1015.8 | |
| 20260903101515 | 76 | 113 | 1.0 | 2.0 | 0.00 | 0.00 | 0.00 | 86 | 1015.8 |
| 20260903100515 | 76 | 113 | 1.0 | 2.0 | 0.00 | 0.00 | 0.00 | 86 | 1015.8 |
| 20260903095515 | 76 | 113 | 1.0 | 2.0 | 0.00 | 0.00 | 0.00 | 86 | 1015.8 |
| 20260903094515 | 76 | 0.0 | 0.0 | 0.00 | 0.00 | 0.00 | 86 | 1015.7 | |
| 20260903093535 | 76 | 0.0 | 0.0 | 0.00 | 0.00 | 0.00 | 86 | 1015.7 | |
| 20260903092535 | 76 | 0.0 | 0.0 | 0.00 | 0.00 | 0.00 | 86 | 1015.8 | |
| 20260903091515 | 76 | 0.0 | 1.0 | 0.00 | 0.00 | 0.00 | 86 | 1015.7 |